Погода на Островах Оки

Япония     36°15′05″N   133°16′44″E
темп.,
°C
ветер,
м/с
пор.,
м/с
влажн.,
%
обл.,
%
осадки,
мм/ч
давл.,
гПа
погр.,
м
22 апреля, чт
чт2200:00+10в337095 0.0 102455
03:00+10в3362100 0.0 102354
06:00+11в3359100 0.0 102353
09:00+17в3541100 0.0 1023377
12:00+19в3532100 0.0 1022560
15:00+18в373142 0.0 1021502
18:00+13всв4105243 0.0 1021327
21:00+12всв4126375 0.0 1022328
23 апреля, пт
пт2300:00+11всв4127494 0.0 1022378
03:00+11в5137599 0.0 1021436
06:00+11всв6136866 0.0 1021495
09:00+14в61060100 0.0 1022625
12:00+14всв71159100 0.0 1021598
15:00+13всв61067100 0.0 1020523
18:00+12всв51076100 0.0 1020513
21:00+11всв4881100 0.0 1021495
24 апреля, сб
сб2400:00+11всв4983100 0.0 1020412
03:00+10всв2382100 0.0 102191
06:00+10всв2284100 0.0 102172
09:00+16всв2264100 0.0 1021386
12:00+18с1158100 0.0 1020706
15:00+18с2256100 0.0 1018759
18:00+14с237399 0.0 1019204
21:00+11ююв118797 0.0 101940
25 апреля, вс
вс2500:00+11сз2385100 0.0 101977
03:00+12ссз4676100 0.0 1019419
06:00+11с3574100 0.0 1019395
09:00+14с566672 0.0 1020823
12:00+13ссв677188 0.1 10201066
15:00+13с67582 0.1 10201126
18:00+10ссв58600 0.0 1021893
21:00+8св37680 0.0 1023235
26 апреля, пн
пн2600:00+7св34700 0.0 1023100
03:00+6св35700 0.0 1023113
06:00+7всв37660 0.0 1024213
09:00+13всв57462 0.0 10241170
12:00+15всв574399 0.0 10241228
15:00+14в564510 0.0 10231043
18:00+11в4756100 0.0 1023588
21:00+9в4963100 0.0 1023409